Retour au catalogue

FENGYUN 1C DEB

ActifSSO
NORAD 30816·DEBRIS·🇨🇳 China

Lancé May 10, 1999 depuis Taiyuan Satellite Launch Center

Loading…

Prochains Passages (prochaines 24 heures)

TLE

FraisSource: Space-Track

Époque: Sep 14, 2026, 04:42 UTC

1 30816U 99025AVA 26257.19594987  .00001961  00000-0  94024-3 0  9996
2 30816  98.8980 333.8446 0050008 347.3981  39.0832 14.19516745  2999

Suivez FENGYUN 1C DEB en temps réel avec AllMySat

Download on the App Store